Weerstation Grootegast  Weerstation Grootegast


15 daagse weersverwachting Savonlinna (FI)

  • Overzicht
  • Per uur
  • 15 dagen
  • Extra
  • Vergelijk
  • Kaarten
  • Dagkaart
  • Meer »
  • Info
  • Statistieken
  • Directe link
    Temp 6h Neerslag Wind  
 06:35     19:25    Daglengte: 12:50 Morgen
03:00
22.6 mm
6
09:00
27.3 mm
5
15:00
22.2 mm
5
21:00
 
5
 06:37     19:22    Daglengte: 12:45 Dinsdag 17 Sep
03:00
 
5
09:00
 
3
15:00
14.1 mm
3
21:00
7.1 mm
3
 06:40     19:19    Daglengte: 12:39 Woensdag 18 Sep
03:00
 
3
09:00
 
3
15:00
 
4
Locatie info
Region: Etelä-Savo
Latitude: 61.8684°N
Longitude: 28.8677°E
75 masl
Postcode: 57100
Temp/Neerslag /Baro Onweer/Dauwpunt
    Temp Baro 1h Neerslag Dauwpunt Wind UV Bewolking  
 06:32     19:28    Daglengte: 12:56 Vandaag
22:00
Voelt als: 7.8°
983.0 hPa 8.4 mm
48%
8.5°
3
Windvlaag: 3.3 m/s
91%
23:00
10°
Voelt als: 7.1°
982.9 hPa 3.9 mm
82%
8.6°
5
Windvlaag: 7.2 m/s
91%
 06:35     19:25    Daglengte: 12:50 Morgen
00:00
Voelt als: 6.5°
983.2 hPa 4.3 mm
82%
8.0°
6
Windvlaag: 8.3 m/s
91%
01:00
Voelt als: 6.2°
983.6 hPa 5.9 mm
82%
7.3°
6
Windvlaag: 8.2 m/s
91%
02:00
Voelt als: 5.9°
983.6 hPa
82%
7.0°
6
Windvlaag: 7.6 m/s
91%
03:00
Voelt als: 5.5°
983.5 hPa
82%
6.7°
6
Windvlaag: 7.5 m/s
91%
04:00
Voelt als: 5.4°
983.2 hPa
82%
6.9°
6
Windvlaag: 7.4 m/s
91%
05:00
Voelt als: 5.3°
983.0 hPa 6.3 mm
82%
6.8°
5
Windvlaag: 6.6 m/s
91%
06:00
Voelt als: 5.3°
982.9 hPa 5.2 mm
82%
7.3°
5
Windvlaag: 5.7 m/s
91%
07:00
Voelt als: 5.0°
983.0 hPa 5.3 mm
82%
6.8°
4
Windvlaag: 6.1 m/s
91%
08:00
Voelt als: 4.8°
983.2 hPa 5.5 mm
82%
6.6°
4
Windvlaag: 5.4 m/s
91%
09:00
Voelt als: 4.3°
983.7 hPa 5.0 mm
82%
6.3°
5
Windvlaag: 6.9 m/s
90%
10:00
Voelt als: 4.5°
984.4 hPa 5.0 mm
82%
6.3°
5
Windvlaag: 7.3 m/s
91%
11:00
Voelt als: 4.7°
985.1 hPa 5.1 mm
82%
6.5°
5
Windvlaag: 7.7 m/s
90%
12:00
Voelt als: 4.7°
985.7 hPa 5.1 mm
82%
6.3°
5
Windvlaag: 7.9 m/s
91%
13:00
Voelt als: 4.9°
986.8 hPa 7.0 mm
71%
6.4°
5
Windvlaag: 8 m/s
89%
14:00
Voelt als: 5.1°
987.8 hPa
21%
6.5°
5
Windvlaag: 7.9 m/s
89%
15:00
Voelt als: 5.7°
988.6 hPa
14%
6.8°
5
Windvlaag: 7.4 m/s
75%
16:00
Voelt als: 5.9°
989.4 hPa
14%
6.7°
5
Windvlaag: 6.8 m/s
84%
17:00
Voelt als: 6.2°
990.1 hPa
14%
5.6°
6
Windvlaag: 7.5 m/s
83%
18:00
Voelt als: 6.1°
990.6 hPa
14%
4.8°
5
Windvlaag: 7.2 m/s
63%
19:00
Voelt als: 5.8°
991.1 hPa
14%
4.4°
5
Windvlaag: 7.1 m/s
47%
20:00
Voelt als: 5.9°
991.6 hPa
14%
4.3°
5
Windvlaag: 6.9 m/s
74%
21:00
Voelt als: 5.5°
992.0 hPa
16%
4.1°
5
Windvlaag: 7.4 m/s
79%
22:00
Voelt als: 4.9°
992.1 hPa
25%
4.6°
5
Windvlaag: 7.7 m/s
66%
23:00
Voelt als: 4.8°
992.4 hPa
36%
4.9°
5
Windvlaag: 7.6 m/s
87%
 06:37     19:22    Daglengte: 12:45 Dinsdag 17 Sep
00:00
Voelt als: 4.5°
992.7 hPa
80%
5.2°
5
Windvlaag: 7.3 m/s
74%
01:00
Voelt als: 4.4°
992.9 hPa
81%
5.3°
5
Windvlaag: 6.8 m/s
85%
02:00
Voelt als: 4.3°
993.2 hPa
82%
5.5°
5
Windvlaag: 6.4 m/s
85%
03:00
Voelt als: 4.2°
993.3 hPa
82%
5.6°
5
Windvlaag: 5.8 m/s
84%
04:00
Voelt als: 4.1°
993.4 hPa
82%
5.7°
4
Windvlaag: 5.8 m/s
77%
05:00
Voelt als: 4.2°
993.4 hPa
82%
5.6°
4
Windvlaag: 5.3 m/s
82%
06:00
Voelt als: 4.3°
993.5 hPa
82%
5.5°
4
Windvlaag: 5.3 m/s
83%
07:00
Voelt als: 4.2°
993.6 hPa
82%
5.6°
4
Windvlaag: 6.1 m/s
78%
08:00
Voelt als: 4.5°
993.6 hPa
82%
5.8°
4
Windvlaag: 4.7 m/s
77%
09:00
Voelt als: 5.2°
993.9 hPa
82%
5.9°
3
Windvlaag: 5.1 m/s
85%
10:00
Voelt als: 5.7°
994.2 hPa 7.0 mm
82%
6.2°
3
Windvlaag: 4.9 m/s
85%
11:00
Voelt als: 6.2°
994.5 hPa
82%
6.3°
3
Windvlaag: 4.2 m/s
84%
12:00
Voelt als: 7.0°
994.8 hPa
82%
6.6°
3
Windvlaag: 3.9 m/s
71%
13:00
Voelt als: 7.7°
995.0 hPa
82%
7.0°
3
Windvlaag: 3.8 m/s
70%
14:00
Voelt als: 7.8°
995.4 hPa 7.1 mm
82%
6.6°
3
Windvlaag: 3.7 m/s
77%
15:00
Voelt als: 7.9°
995.6 hPa
82%
6.2°
3
Windvlaag: 3.5 m/s
73%
16:00
10°
Voelt als: 8.1°
995.7 hPa
75%
5.5°
3
Windvlaag: 3.6 m/s
58%
17:00
Voelt als: 7.5°
996.1 hPa 7.1 mm
77%
6.8°
3
Windvlaag: 5.9 m/s
68%
18:00
Voelt als: 7.6°
996.3 hPa
97%
6.4°
3
Windvlaag: 4.9 m/s
54%
19:00
Voelt als: 6.9°
996.5 hPa
82%
5.8°
2
Windvlaag: 3.2 m/s
26%
20:00
Voelt als: 5.7°
996.8 hPa
21%
5.6°
3
Windvlaag: 3.3 m/s
45%
21:00
Voelt als: 5.0°
997.2 hPa
21%
5.2°
3
Windvlaag: 3.3 m/s
22%
22:00
Voelt als: 4.1°
997.5 hPa
21%
4.6°
3
Windvlaag: 3.2 m/s
27%
23:00
Voelt als: 3.4°
997.7 hPa
21%
4.0°
3
Windvlaag: 3.4 m/s
54%
 06:40     19:19    Daglengte: 12:39 Woensdag 18 Sep
00:00
Voelt als: 3.5°
998.1 hPa
21%
4.2°
3
Windvlaag: 3.4 m/s
68%
01:00
Voelt als: 2.9°
998.4 hPa
22%
4.1°
3
Windvlaag: 3.4 m/s
50%
02:00
Voelt als: 2.5°
998.7 hPa
31%
4.0°
3
Windvlaag: 3.4 m/s
48%
03:00
Voelt als: 2.0°
999.0 hPa
76%
3.9°
3
Windvlaag: 3.6 m/s
63%
04:00
Voelt als: 2.3°
999.3 hPa
39%
4.0°
3
Windvlaag: 4.1 m/s
75%
05:00
Voelt als: 2.7°
999.6 hPa
29%
4.3°
3
Windvlaag: 4.8 m/s
70%
06:00
Voelt als: 3.0°
1000.0 hPa
21%
4.4°
3
Windvlaag: 4.7 m/s
92%
07:00
Voelt als: 2.9°
1000.5 hPa
21%
4.3°
3
Windvlaag: 4.8 m/s
59%
08:00
Voelt als: 3.2°
1001.0 hPa
37%
3.9°
3
Windvlaag: 3.9 m/s
78%
09:00
Voelt als: 3.7°
1001.6 hPa
93%
3.8°
3
Windvlaag: 5.1 m/s
61%
10:00
Voelt als: 4.1°
1002.1 hPa
40%
3.4°
4
Windvlaag: -4.2 m/s
37%
11:00
Voelt als: 4.6°
1002.6 hPa
21%
2.8°
4
Windvlaag: -4.5 m/s
32%
12:00
Voelt als: 5.2°
1003.1 hPa
21%
2.0°
4
Windvlaag: -4.9 m/s
57%
13:00
Voelt als: 5.7°
1003.6 hPa
21%
1.3°
4
Windvlaag: -5.2 m/s
74%
14:00
Voelt als: 6.2°
1004.0 hPa
21%
0.3°
4
Windvlaag: -5.2 m/s
55%
15:00
Voelt als: 6.5°
1004.5 hPa
34%
-0.7°
4
Windvlaag: -2.6 m/s
95%
16:00
Voelt als: 6.4°
1004.7 hPa
87%
-0.4°
4
Windvlaag: 6.1 m/s
95%
17:00
Voelt als: 6.2°
1005.1 hPa
95%
-0.4°
4
Windvlaag: 6.3 m/s
78%
18:00
Voelt als: 6.0°
1005.5 hPa
99%
-0.3°
4
Windvlaag: 6.5 m/s
65%
19:00
Voelt als: 5.9°
1006.0 hPa
100%
0.0°
3
Windvlaag: 6.5 m/s
71%
20:00
Voelt als: 5.8°
1006.4 hPa 12.0 mm
100%
-0.1°
3
Windvlaag: 7.6 m/s
71%
21:00
Voelt als: 5.3°
1006.9 hPa 12.0 mm
100%
0.1°
3
Windvlaag: 1.1 m/s
69%
Temp/Neerslag /Baro Onweer/Dauwpunt
    Temp Baro Neerslag Dauwpunt Wind Bewolking  
 06:35     19:25    Daglengte: 12:50 Morgen
00:00
Voelt als: 6.5°
983.2 hPa 16.6 mm 8.0°
6
91%
03:00
Voelt als: 5.5°
983.5 hPa 5.9 mm 6.7°
6
91%
06:00
Voelt als: 5.3°
982.9 hPa 11.5 mm 7.3°
5
91%
09:00
Voelt als: 4.3°
983.7 hPa 15.8 mm 6.3°
5
90%
12:00
Voelt als: 4.7°
985.7 hPa 15.2 mm 6.3°
5
91%
15:00
Voelt als: 5.7°
988.6 hPa 7.0 mm 6.8°
5
75%
18:00
Voelt als: 6.1°
990.6 hPa   4.8°
5
63%
21:00
Voelt als: 5.5°
992.0 hPa   4.1°
5
79%
 06:37     19:22    Daglengte: 12:45 Dinsdag 17 Sep
00:00
Voelt als: 4.5°
992.7 hPa   5.2°
5
74%
03:00
Voelt als: 4.2°
993.3 hPa   5.6°
5
84%
06:00
Voelt als: 4.3°
993.5 hPa   5.5°
4
83%
09:00
Voelt als: 5.2°
993.9 hPa   5.9°
3
85%
12:00
Voelt als: 7.0°
994.8 hPa 7.0 mm 6.6°
3
71%
15:00
Voelt als: 7.9°
995.6 hPa 7.1 mm 6.2°
3
73%
18:00
Voelt als: 7.6°
996.3 hPa 7.1 mm 6.4°
3
54%
21:00
Voelt als: 5.0°
997.2 hPa   5.2°
3
22%
 06:40     19:19    Daglengte: 12:39 Woensdag 18 Sep
00:00
Voelt als: 3.5°
998.1 hPa   4.2°
3
68%
03:00
Voelt als: 2.0°
999.0 hPa   3.9°
3
63%
06:00
Voelt als: 3.0°
1000.0 hPa   4.4°
3
92%
09:00
Voelt als: 3.7°
1001.6 hPa   3.8°
3
61%
12:00
Voelt als: 5.2°
1003.1 hPa   2.0°
4
57%
15:00
Voelt als: 6.5°
1004.5 hPa   -0.7°
4
95%
18:00
Voelt als: 6.0°
1005.5 hPa   -0.3°
4
65%
21:00
Voelt als: 5.3°
1006.9 hPa 35.9 mm 0.1°
3
69%
 06:42     19:15    Daglengte: 12:33 Donderdag 19 Sep
00:00
Voelt als: 4.9°
1008.2 hPa 26.0 mm 0.7°
3
57%
03:00
Voelt als: 4.8°
1008.8 hPa 26.0 mm 1.0°
2
52%
06:00
Voelt als: 4.1°
1009.6 hPa 26.0 mm 1.2°
3
60%
09:00
Voelt als: 3.5°
1010.3 hPa 26.0 mm 1.5°
3
68%
12:00
Voelt als: 5.0°
1011.2 hPa 26.0 mm -0.6°
4
76%
15:00
Voelt als: 6.3°
1012.1 hPa 26.0 mm -3.8°
4
83%
18:00
Voelt als: 5.6°
1012.7 hPa 26.1 mm -2.1°
3
52%
21:00
Voelt als: 4.8°
1013.4 hPa 26.2 mm -0.7°
2
22%
 06:45     19:12    Daglengte: 12:27 Vrijdag 20 Sep
00:00
Voelt als: 3.3°
1013.9 hPa 26.5 mm 0.4°
3
23%
03:00
Voelt als: 1.9°
1014.3 hPa 26.6 mm 1.4°
4
25%
06:00
Voelt als: 1.7°
1014.6 hPa 26.6 mm 1.2°
4
23%
09:00
Voelt als: 1.7°
1014.9 hPa 26.6 mm 1.1°
4
20%
12:00
Voelt als: 2.5°
1015.4 hPa 26.6 mm 1.4°
4
39%
15:00
Voelt als: 3.2°
1015.8 hPa 26.6 mm 1.5°
4
57%
18:00
Voelt als: 2.4°
1016.3 hPa 26.6 mm 2.3°
4
53%
21:00
Voelt als: 1.5°
1016.8 hPa 26.6 mm 2.9°
4
49%
 06:48     19:09    Daglengte: 12:21 Zaterdag 21 Sep
00:00
Voelt als: 1.3°
1017.7 hPa 26.6 mm 2.1°
4
29%
03:00
Voelt als: 1.3°
1018.5 hPa 26.6 mm 1.2°
4
9%
06:00
Voelt als: 1.6°
1019.4 hPa 28.0 mm 0.7°
4
22%
09:00
Voelt als: 2.4°
1020.4 hPa 31.7 mm -0.1°
4
34%
12:00
Voelt als: 4.0°
1020.8 hPa 34.5 mm -0.7°
3
62%
15:00
Voelt als: 5.5°
1021.3 hPa 34.8 mm -1.7°
3
90%
18:00
Voelt als: 5.8°
1021.3 hPa 34.8 mm 0.1°
3
88%
21:00
Voelt als: 6.1°
1021.4 hPa 35.0 mm 1.7°
2
87%
 06:50     19:05    Daglengte: 12:15 Zondag 22 Sep
00:00
Voelt als: 5.4°
1021.3 hPa 35.0 mm 2.1°
3
89%
03:00
Voelt als: 4.7°
1021.3 hPa 35.0 mm 2.5°
4
92%
06:00
Voelt als: 4.3°
1020.1 hPa 35.0 mm 3.8°
5
92%
09:00
Voelt als: 4.1°
1018.8 hPa 35.0 mm 5.1°
5
92%
12:00
10°
Voelt als: 6.8°
1016.1 hPa 35.0 mm 7.3°
6
92%
15:00
12°
1013.2 hPa 35.0 mm 9.6°
6
92%
18:00
12°
1010.4 hPa 35.0 mm 9.8°
6
48%
21:00
12°
1007.7 hPa 70.0 mm 10.0°
6
4%
 06:53     19:02    Daglengte: 12:09 Maandag 23 Sep
03:00
12°
1005.3 hPa 70.0 mm 9.1°
6
72%
09:00
11°
1004.6 hPa 70.0 mm 10.3°
5
92%
15:00
14°
1004.5 hPa 70.1 mm 8.5°
5
4%
21:00
12°
1005.7 hPa 70.1 mm 7.2°
5
65%
 06:55     18:59    Daglengte: 12:04 Dinsdag 24 Sep
03:00
10°
Voelt als: 7.1°
1007.1 hPa 70.1 mm 5.6°
5
31%
09:00
Voelt als: 6.8°
1008.5 hPa 70.1 mm 5.5°
5
44%
15:00
12°
1011.0 hPa 70.1 mm 3.5°
6
68%
21:00
Voelt als: 7.2°
1013.6 hPa 70.1 mm 4.6°
4
85%
 06:58     18:56    Daglengte: 11:58 Woensdag 25 Sep
03:00
Voelt als: 6.8°
1015.7 hPa 70.1 mm 5.1°
2
74%
09:00
Voelt als: 4.6°
1020.4 hPa 70.1 mm 0.7°
3
1%
15:00
11°
1019.3 hPa 70.1 mm 2.7°
4
1%
21:00
Voelt als: 7.6°
1014.5 hPa 0.8 mm 6.8°
2
75%
 07:00     18:52    Daglengte: 11:52 Donderdag 26 Sep
03:00
Voelt als: 7.4°
1013.8 hPa 0.8 mm 6.9°
2
70%
09:00
Voelt als: 8.1°
1013.1 hPa 2.1 mm 7.5°
2
77%
15:00
11°
1012.8 hPa 0.4 mm 8.1°
2
76%
21:00
Voelt als: 8.1°
1012.9 hPa 1.1 mm 7.0°
2
66%
 07:03     18:49    Daglengte: 11:46 Vrijdag 27 Sep
03:00
Voelt als: 7.0°
1012.6 hPa 0.4 mm 6.7°
2
59%
09:00
Voelt als: 7.5°
1012.2 hPa 0.8 mm 7.1°
2
66%
15:00
11°
1011.7 hPa 0.7 mm 7.9°
2
70%
21:00
Voelt als: 8.2°
1010.8 hPa 1.0 mm 7.4°
2
65%
 07:06     18:46    Daglengte: 11:40 Zaterdag 28 Sep
03:00
Voelt als: 7.5°
1010.5 hPa 0.9 mm 7.2°
2
67%
09:00
Voelt als: 7.9°
1010.1 hPa 1.0 mm 7.5°
2
65%
15:00
12°
1010.4 hPa 0.8 mm 8.3°
2
66%
21:00
Voelt als: 8.6°
1011.3 hPa 0.3 mm 7.2°
1
60%
 07:08     18:43    Daglengte: 11:35 Zondag 29 Sep
03:00
Voelt als: 7.4°
1012.5 hPa 0.6 mm 6.4°
1
60%
09:00
Voelt als: 7.7°
1013.1 hPa 0.3 mm 6.0°
1
59%
15:00
11°
1013.7 hPa 0.4 mm 6.4°
1
61%
21:00
Voelt als: 7.9°
1013.8 hPa 0.7 mm 5.9°
1
60%
 07:11     18:39    Daglengte: 11:28 Maandag 30 Sep
03:00
Voelt als: 6.1°
1014.6 hPa 0.2 mm 5.4°
1
51%
09:00
Voelt als: 6.2°
1014.7 hPa 0.2 mm 5.3°
2
51%
15:00
11°
1014.5 hPa 0.3 mm 6.6°
2
55%
21:00
Voelt als: 7.2°
1013.8 hPa 0.8 mm 6.5°
2
56%
  CAPE Lifted Index Hail Supercell Tornado SRH 3km CL BTM PRES CL TOP PRES Swiss DWD icon SMHI TS
 06:32     19:28    Daglengte: 12:56 Vandaag
22:00 2 J/kg 1.2 K 0 % 0 % 0 % 0 m²/s² 0 0 1.5 80
23:00 54 J/kg 2.3 K 0 % 0 % 0 % 0 m²/s² 0 0 2.57 61
 06:35     19:25    Daglengte: 12:50 Morgen
00:00 29 J/kg 3.7 K 0 % 0 % 0 % 0 m²/s² 0 0 4.03 80
01:00 56 J/kg 2.9 K 0 % 0 % 0 % 0 m²/s² 0 0 3.26 61
02:00 28 J/kg 3.1 K 0 % 0 % 0 % 0 m²/s² 0 0 3.49 61
03:00 7 J/kg 3.3 K 0 % 0 % 0 % 0 m²/s² 0 0 3.69 61
04:00 16 J/kg 3.0 K 0 % 0 % 0 % 0 m²/s² 0 0 3.36 3
05:00 27 J/kg 3.1 K 0 % 0 % 0 % 0 m²/s² 0 0 3.46 3
06:00 18 J/kg 3.6 K 0 % 0 % 0 % 0 m²/s² 0 0 3.96 61
07:00 2 J/kg 4.3 K 0 % 0 % 0 % 0 m²/s² 0 0 4.66 61
08:00 2 J/kg 4.2 K 0 % 0 % 0 % 0 m²/s² 0 0 4.56 61
09:00 4 J/kg 4.3 K 0 % 0 % 0 % 0 m²/s² 0 0 4.66 61
10:00 7 J/kg 4.5 K 0 % 0 % 0 % 0 m²/s² 0 0 4.86 61
11:00 13 J/kg 4.6 K 0 % 0 % 0 % 0 m²/s² 0 0 5.05 61
12:00 8 J/kg 4.8 K 0 % 0 % 0 % 0 m²/s² 0 0 5.19 61
13:00 12 J/kg 5.0 K 0 % 0 % 0 % 0 m²/s² 0 0 5.36 3
14:00 26 J/kg 4.7 K 0 % 0 % 0 % 0 m²/s² 0 0 4.97 3
15:00 15 J/kg 5.0 K 0 % 0 % 0 % 0 m²/s² 0 0 5.39 3
16:00 0 J/kg 5.9 K 0 % 0 % 0 % 0 m²/s² 0 0 7.22 3
17:00 1 J/kg 5.8 K 0 % 0 % 0 % 0 m²/s² 0 0 8.47 3
18:00 12 J/kg 5.1 K 0 % 0 % 0 % 0 m²/s² 0 0 9.96 3
19:00 16 J/kg 5.0 K 0 % 0 % 0 % 0 m²/s² 0 0 11.45 3
20:00 14 J/kg 5.0 K 0 % 0 % 0 % 0 m²/s² 0 0 11.9 3
21:00 7 J/kg 5.0 K 0 % 0 % 0 % 0 m²/s² 0 0 7.67 3
22:00 0 J/kg 4.9 K 0 % 0 % 0 % 0 m²/s² 0 0 5.92 3
23:00 10 J/kg 4.5 K 0 % 0 % 0 % 0 m²/s² 0 0 5.16 3
 06:37     19:22    Daglengte: 12:45 Dinsdag 17 Sep
00:00 17 J/kg 4.5 K 0 % 0 % 0 % 0 m²/s² 0 0 5.07 61
01:00 14 J/kg 4.3 K 0 % 0 % 0 % 0 m²/s² 0 0 4.84 61
02:00 7 J/kg 3.7 K 0 % 0 % 0 % 0 m²/s² 0 0 4.15 61
03:00 6 J/kg 3.5 K 0 % 0 % 0 % 0 m²/s² 0 0 3.86 3
04:00 2 J/kg 3.7 K 0 % 0 % 0 % 0 m²/s² 0 0 4.09 51
05:00 2 J/kg 3.9 K 0 % 0 % 0 % 0 m²/s² 0 0 4.47 3
06:00 10 J/kg 4.2 K 0 % 0 % 0 % 0 m²/s² 0 0 4.71 61
07:00 14 J/kg 4.4 K 0 % 0 % 0 % 0 m²/s² 0 0 5.87 61
08:00 4 J/kg 5.0 K 0 % 0 % 0 % 0 m²/s² 0 0 7.31 61
09:00 44 J/kg 4.4 K 0 % 0 % 0 % 0 m²/s² 0 0 5.81 61
10:00 106 J/kg 3.6 K 0 % 0 % 0 % 0 m²/s² 0 0 4.65 61
11:00 134 J/kg 3.3 K 0 % 0 % 0 % 0 m²/s² 0 0 4.44 61
12:00 126 J/kg 3.5 K 0 % 0 % 0 % 0 m²/s² 0 0 5.24 61
13:00 92 J/kg 4.0 K 0 % 0 % 0 % 0 m²/s² 0 0 6.46 61
14:00 73 J/kg 4.4 K 0 % 0 % 0 % 0 m²/s² 0 0 7.13 61
15:00 49 J/kg 4.8 K 0 % 0 % 0 % 0 m²/s² 0 0 7.32 3
16:00 53 J/kg 4.7 K 0 % 0 % 0 % 0 m²/s² 0 0 7.07 3
17:00 48 J/kg 5.1 K 0 % 0 % 0 % 0 m²/s² 0 0 7.53 3
18:00 43 J/kg 5.2 K 0 % 0 % 0 % 0 m²/s² 0 0 7.78 3
19:00 30 J/kg 5.6 K 0 % 0 % 0 % 0 m²/s² 0 0 8.39 1
20:00 15 J/kg 5.9 K 0 % 0 % 0 % 0 m²/s² 0 0 9.02 2
21:00 19 J/kg 5.8 K 0 % 0 % 0 % 0 m²/s² 0 0 9.37 2
22:00 17 J/kg 5.8 K 0 % 0 % 0 % 0 m²/s² 0 0 10.63 1
23:00 30 J/kg 6.3 K 0 % 0 % 0 % 0 m²/s² 0 0 12.33 2
 06:40     19:19    Daglengte: 12:39 Woensdag 18 Sep
00:00 18 J/kg 7.0 K 0 % 0 % 0 % 0 m²/s² 0 0 12.85 2
01:00 0 J/kg 7.4 K 0 % 0 % 0 % 0 m²/s² 0 0 13.25 3
02:00 10 J/kg 7.4 K 0 % 0 % 0 % 0 m²/s² 0 0 13.07 3
03:00 17 J/kg 7.5 K 0 % 0 % 0 % 0 m²/s² 0 0 13.17 3
04:00 23 J/kg 7.2 K 0 % 0 % 0 % 0 m²/s² 0 0 12.87 3
05:00 20 J/kg 7.1 K 0 % 0 % 0 % 0 m²/s² 0 0 12.95 2
06:00 29 J/kg 7.5 K 0 % 0 % 0 % 0 m²/s² 0 0 13.17 3
07:00 2 J/kg 7.9 K 0 % 0 % 0 % 0 m²/s² 0 0 13.72 2
08:00 0 J/kg 8.6 K 0 % 0 % 0 % 0 m²/s² 0 0 14.42 3
09:00 9 J/kg 8.5 K 0 % 0 % 0 % 0 m²/s² 0 0 14.5 61
10:00 44 J/kg 7.9 K 0 % 0 % 0 % 0 m²/s² 0 0 13.72 1
11:00 33 J/kg 8.2 K 0 % 0 % 0 % 0 m²/s² 0 0 14.2 2
12:00 18 J/kg 8.7 K 0 % 0 % 0 % 0 m²/s² 0 0 14.52 3
13:00 24 J/kg 8.4 K 0 % 0 % 0 % 0 m²/s² 0 0 13.89 3
14:00 16 J/kg 8.4 K 0 % 0 % 0 % 0 m²/s² 0 0 13.44 3
15:00 26 J/kg 8.2 K 0 % 0 % 0 % 0 m²/s² 0 0 13.09 3
16:00 39 J/kg 7.6 K 0 % 0 % 0 % 0 m²/s² 0 0 12.13 3
17:00 25 J/kg 7.7 K 0 % 0 % 0 % 0 m²/s² 0 0 11.48 3
18:00 9 J/kg 7.7 K 0 % 0 % 0 % 0 m²/s² 0 0 10.76 2
19:00 0 J/kg 7.5 K 0 % 0 % 0 % 0 m²/s² 0 0 9.15 61
20:00 1 J/kg 6.8 K 0 % 0 % 0 % 0 m²/s² 0 0 8.6 80
21:00 0 J/kg 6.7 K 0 % 0 % 0 % 0 m²/s² 0 0 8.92 80
Temp Baro Wind Neerslag
  EWN Forecast EWN WRFDA DWD ICON FMI HIRLAM MET Norway GFS
 06:35     19:25    Daglengte: 12:50 Morgen
00:00 9.4° 983.2 hPa 6.0 m/s 16.6 mm 8.7° 981.1 hPa 7.8 m/s 63.7 mm 9.5° 983.1 hPa 4.6 m/s 10.8 mm 10.0° 983.2 hPa 6.0 m/s 0.0 mm 9.4° 983.4 hPa 7.0 m/s 4.7 mm 9.5° 982.2 hPa 9.5 m/s
03:00 8.6° 983.5 hPa 5.7 m/s 5.9 mm 8.5° 980.7 hPa 6.7 m/s 84.2 mm 9.4° 983.6 hPa 5.0 m/s 0.3 mm 8.9° 983.5 hPa 5.0 m/s 0.0 mm 8.1° 983.6 hPa 6.0 m/s 0.0 mm 9.1° 982.1 hPa 9.5 m/s
06:00 8.2° 982.9 hPa 4.9 m/s 11.5 mm 7.9° 981.0 hPa 2.7 m/s 91.8 mm 8.9° 983.4 hPa 3.0 m/s 1.1 mm 8.4° 982.9 hPa 5.3 m/s 0.0 mm 7.6° 982.4 hPa 6.0 m/s 1.0 mm 8.9° 982.7 hPa 7.1 m/s
09:00 7.4° 983.7 hPa 5.1 m/s 15.8 mm 7.8° 981.7 hPa 5.3 m/s 99.2 mm 8.2° 985.0 hPa 3.7 m/s 0.7 mm 6.9° 983.6 hPa 5.3 m/s 0.0 mm 7.3° 983.1 hPa 6.4 m/s 1.6 mm 8.6° 983.6 hPa 7.4 m/s
12:00 7.7° 985.7 hPa 5.0 m/s 15.2 mm 8.1° 984.2 hPa 6.1 m/s 101.7 mm 8.7° 987.4 hPa 4.6 m/s 0.4 mm 7.2° 985.4 hPa 3.9 m/s 0.0 mm 7.5° 985.2 hPa 7.4 m/s 1.2 mm 7.8° 986.0 hPa 7.8 m/s
15:00 8.5° 988.6 hPa 5.1 m/s 7.0 mm 10.9° 986.3 hPa 6.1 m/s 102.3 mm 10.2° 990.3 hPa 5.0 m/s 0.0 mm 8.2° 988.5 hPa 4.1 m/s 0.0 mm 7.4° 988.4 hPa 6.9 m/s 1.3 mm 9.3° 989.1 hPa 6.8 m/s
18:00 9.0° 990.6 hPa 5.4 m/s 0.0 mm 10.5° 988.0 hPa 5.2 m/s 102.4 mm 9.5° 992.3 hPa 5.2 m/s 0.0 mm 8.6° 990.5 hPa 3.5 m/s 0.0 mm 8.8° 990.6 hPa 8.0 m/s 0.4 mm 9.6° 991.2 hPa 6.2 m/s
21:00 8.4° 992.0 hPa 5.4 m/s 0.0 mm 7.5° 988.8 hPa 3.6 m/s 102.4 mm 8.7° 993.4 hPa 4.3 m/s 0.0 mm 9.4° 991.3 hPa 4.8 m/s 0.0 mm 8.4° 992.2 hPa 8.5 m/s 0.0 mm 8.8° 992.4 hPa 5.9 m/s
 06:37     19:22    Daglengte: 12:45 Dinsdag 17 Sep
00:00 7.5° 992.7 hPa 5.0 m/s 0.0 mm 8.1° 989.7 hPa 4.1 m/s 102.4 mm 7.9° 993.5 hPa 4.2 m/s 0.1 mm 7.8° 992.4 hPa 4.5 m/s 0.0 mm 7.1° 993.1 hPa 7.7 m/s 0.0 mm 8.5° 992.9 hPa 5.2 m/s
03:00 7.1° 993.3 hPa 4.6 m/s 0.0 mm 8.0° 990.1 hPa 4.0 m/s 102.7 mm 7.4° 994.0 hPa 4.0 m/s 0.3 mm 7.6° 993.2 hPa 4.1 m/s 0.0 mm 6.6° 993.8 hPa 6.5 m/s 0.0 mm 7.7° 993.4 hPa 4.4 m/s
06:00 7.0° 993.5 hPa 4.1 m/s 0.0 mm 8.0° 990.4 hPa 3.3 m/s 103.4 mm 7.4° 994.1 hPa 4.1 m/s 0.1 mm 7.5° 993.8 hPa 3.8 m/s 0.0 mm 6.7° 993.7 hPa 5.9 m/s 0.0 mm 6.8° 993.4 hPa 4.1 m/s
09:00 7.5° 993.9 hPa 3.4 m/s 0.0 mm 8.2° 991.1 hPa 3.4 m/s 103.4 mm 7.6° 994.5 hPa 3.0 m/s 0.3 mm 7.9° 994.1 hPa 3.1 m/s 0.0 mm 7.3° 993.9 hPa 5.1 m/s 0.0 mm 7.1° 994.0 hPa 3.5 m/s
12:00 8.6° 994.8 hPa 2.8 m/s 7.0 mm 10.6° 992.4 hPa 3.2 m/s 103.5 mm 8.4° 995.2 hPa 2.2 m/s 0.5 mm 9.2° 994.7 hPa 2.5 m/s 0.0 mm 8.3° 994.9 hPa 4.2 m/s 0.0 mm 9.1° 994.8 hPa 3.4 m/s
15:00 9.4° 995.6 hPa 2.8 m/s 7.1 mm 10.8° 993.4 hPa 3.5 m/s 103.5 mm 9.2° 996.6 hPa 2.2 m/s 0.4 mm 9.6° 995.7 hPa 2.5 m/s 0.0 mm 9.3° 995.6 hPa 3.4 m/s 0.0 mm 10.0° 995.3 hPa 4.0 m/s
18:00 9.0° 996.3 hPa 2.5 m/s 7.1 mm 9.7° 993.9 hPa 4.3 m/s 103.6 mm 9.7° 997.1 hPa 2.0 m/s 0.3 mm 8.1° 996.4 hPa 2.5 m/s 0.0 mm 8.9° 995.7 hPa 4.9 m/s
21:00 6.9° 997.2 hPa 2.7 m/s 0.0 mm 6.7° 994.9 hPa 3.2 m/s 103.6 mm 8.4° 997.9 hPa 1.7 m/s 0.0 mm 6.3° 997.3 hPa 2.9 m/s 0.0 mm 6.6° 997.3 hPa 4.3 m/s
 06:40     19:19    Daglengte: 12:39 Woensdag 18 Sep
00:00 5.8° 998.1 hPa 3.0 m/s 0.0 mm 4.3° 995.6 hPa 2.7 m/s 103.6 mm 7.6° 999.3 hPa 1.8 m/s 0.0 mm 5.6° 998.0 hPa 3.3 m/s 0.0 mm 6.3° 998.1 hPa 4.6 m/s
03:00 4.7° 999.0 hPa 3.1 m/s 0.0 mm 3.3° 996.8 hPa 2.8 m/s 103.6 mm 7.5° 1000.7 hPa 2.0 m/s 0.0 mm 4.2° 998.7 hPa 3.6 m/s 0.0 mm 5.6° 999.9 hPa 4.2 m/s
06:00 5.6° 1000.0 hPa 3.3 m/s 0.0 mm 4.3° 998.0 hPa 1.9 m/s 104.8 mm 7.1° 1002.1 hPa 1.9 m/s 0.0 mm 5.6° 999.5 hPa 4.8 m/s 0.0 mm 4.1° 1000.9 hPa 5.1 m/s
09:00 6.2° 1001.6 hPa 3.5 m/s 0.0 mm 5.6° 999.1 hPa 3.1 m/s 106.1 mm 7.1° 1003.8 hPa 1.8 m/s 0.1 mm 6.4° 1001.1 hPa 5.2 m/s 0.0 mm 5.1° 1002.4 hPa 5.8 m/s
12:00 7.8° 1003.1 hPa 4.3 m/s 0.0 mm 8.0° 1000.9 hPa 4.6 m/s 106.1 mm 9.1° 1005.1 hPa 2.3 m/s 0.0 mm 7.7° 1002.7 hPa 5.1 m/s 7.2° 1004.2 hPa 5.3 m/s
15:00 9.0° 1004.5 hPa 4.4 m/s 0.0 mm 8.6° 1002.0 hPa 4.7 m/s 106.1 mm 10.0° 1006.0 hPa 2.5 m/s 0.0 mm 8.9° 1004.2 hPa 4.9 m/s 7.6° 1005.2 hPa 5.2 m/s
18:00 8.4° 1005.5 hPa 4.1 m/s 0.0 mm 7.6° 1003.1 hPa 4.6 m/s 106.1 mm 9.1° 1006.7 hPa 1.5 m/s 0.0 mm 8.4° 1005.6 hPa 4.5 m/s 7.1° 1006.3 hPa 4.9 m/s
21:00 7.5° 1006.9 hPa 3.3 m/s 35.9 mm 4.6° 1004.7 hPa 2.8 m/s 106.1 mm 7.7° 1007.6 hPa 1.6 m/s 0.8 mm 7.9° 1007.0 hPa 4.1 m/s 6.0° 1008.1 hPa 5.0 m/s
 06:42     19:15    Daglengte: 12:33 Donderdag 19 Sep
00:00 6.9° 1008.2 hPa 2.8 m/s 26.0 mm 7.0° 1008.1 hPa 2.6 m/s 5.2° 1009.4 hPa 5.1 m/s 26.0 mm
03:00 6.4° 1008.8 hPa 2.1 m/s 26.0 mm 6.6° 1008.6 hPa 1.9 m/s 3.9° 1011.2 hPa 4.6 m/s 26.0 mm
06:00 6.1° 1009.6 hPa 2.7 m/s 26.0 mm 6.3° 1009.4 hPa 2.5 m/s 3.5° 1012.0 hPa 4.7 m/s 26.0 mm
09:00 6.0° 1010.3 hPa 3.3 m/s 26.0 mm 6.1° 1010.1 hPa 3.1 m/s 5.2° 1012.9 hPa 5.2 m/s 26.0 mm
12:00 7.4° 1011.2 hPa 3.7 m/s 26.0 mm 7.4° 1011.0 hPa 3.5 m/s 7.3° 1013.8 hPa 5.3 m/s 26.0 mm
15:00 8.7° 1012.1 hPa 4.1 m/s 26.0 mm 8.7° 1011.9 hPa 3.9 m/s 8.2° 1014.4 hPa 6.2 m/s 26.0 mm
18:00 7.7° 1012.7 hPa 3.2 m/s 26.1 mm 7.7° 1012.5 hPa 3.0 m/s 7.3° 1014.4 hPa 5.8 m/s 26.1 mm
21:00 6.6° 1013.4 hPa 2.5 m/s 26.2 mm 6.7° 1013.2 hPa 2.1 m/s 5.5° 1015.9 hPa 6.4 m/s 26.2 mm
 06:45     19:12    Daglengte: 12:27 Vrijdag 20 Sep
00:00 5.7° 1013.9 hPa 3.0 m/s 26.5 mm 5.8° 1013.6 hPa 2.8 m/s 4.7° 1016.8 hPa 5.7 m/s 26.5 mm
03:00 4.8° 1014.3 hPa 3.7 m/s 26.6 mm 4.9° 1014.0 hPa 3.5 m/s 4.1° 1017.3 hPa 5.5 m/s 26.6 mm
06:00 4.8° 1014.6 hPa 3.9 m/s 26.6 mm 5.0° 1014.3 hPa 3.8 m/s 3.5° 1017.4 hPa 5.3 m/s 26.6 mm
09:00 5.0° 1014.9 hPa 4.3 m/s 26.6 mm 5.0° 1014.6 hPa 4.1 m/s 5.3° 1017.7 hPa 6.2 m/s 26.6 mm
12:00 5.7° 1015.4 hPa 4.3 m/s 26.6 mm 5.5° 1015.1 hPa 4.2 m/s 7.5° 1018.2 hPa 6.2 m/s 26.6 mm
15:00 6.2° 1015.8 hPa 4.3 m/s 26.6 mm 6.0° 1015.6 hPa 4.2 m/s 8.4° 1018.0 hPa 5.7 m/s 26.6 mm
18:00 5.6° 1016.3 hPa 4.4 m/s 26.6 mm 5.4° 1016.2 hPa 4.3 m/s 7.8° 1017.7 hPa 4.9 m/s 26.6 mm
21:00 4.9° 1016.8 hPa 4.4 m/s 26.6 mm 4.8° 1016.7 hPa 4.5 m/s 6.0° 1018.4 hPa 3.8 m/s 26.6 mm
 06:48     19:09    Daglengte: 12:21 Zaterdag 21 Sep
00:00 4.6° 1017.7 hPa 4.1 m/s 26.6 mm 4.5° 1017.8 hPa 4.2 m/s 5.2° 1017.1 hPa 3.1 m/s 26.6 mm
03:00 4.5° 1018.5 hPa 3.9 m/s 26.6 mm 4.3° 1018.9 hPa 3.8 m/s 6.2° 1014.3 hPa 4.7 m/s 26.6 mm
06:00 4.8° 1019.4 hPa 4.0 m/s 28.0 mm 4.7° 1020.2 hPa 3.7 m/s 5.8° 1010.5 hPa 6.8 m/s 28.0 mm
09:00 5.3° 1020.4 hPa 3.7 m/s 31.7 mm 5.1° 1021.5 hPa 3.6 m/s 7.7° 1007.7 hPa 5.2 m/s 31.7 mm
12:00 6.5° 1020.8 hPa 3.4 m/s 34.5 mm 6.2° 1022.0 hPa 3.5 m/s 9.2° 1007.0 hPa 3.0 m/s 34.5 mm
15:00 7.7° 1021.3 hPa 3.4 m/s 34.8 mm 7.4° 1022.6 hPa 3.3 m/s 11.6° 1006.9 hPa 4.9 m/s 34.8 mm
18:00 7.7° 1021.3 hPa 2.9 m/s 34.8 mm 7.2° 1022.7 hPa 2.5 m/s 12.4° 1006.7 hPa 6.8 m/s 34.8 mm
21:00 7.6° 1021.4 hPa 2.3 m/s 35.0 mm 7.1° 1022.7 hPa 1.8 m/s 12.9° 1006.9 hPa 7.8 m/s 35.0 mm
 06:50     19:05    Daglengte: 12:15 Zondag 22 Sep
00:00 7.5° 1021.3 hPa 3.2 m/s 35.0 mm 7.0° 1022.6 hPa 2.8 m/s 12.6° 1007.5 hPa 8.7 m/s 35.0 mm
03:00 7.4° 1021.3 hPa 4.1 m/s 35.0 mm 7.0° 1022.5 hPa 3.7 m/s 11.3° 1008.4 hPa 8.5 m/s 35.0 mm
06:00 7.3° 1020.1 hPa 4.8 m/s 35.0 mm 7.0° 1021.1 hPa 4.5 m/s 10.8° 1009.0 hPa 8.1 m/s 35.0 mm
09:00 7.4° 1018.8 hPa 5.5 m/s 35.0 mm 7.0° 1019.7 hPa 5.3 m/s 11.4° 1009.2 hPa 7.4 m/s 35.0 mm
12:00 9.6° 1016.1 hPa 5.8 m/s 35.0 mm 9.2° 1016.7 hPa 5.8 m/s 14.0° 1009.4 hPa 6.0 m/s 35.0 mm
15:00 11.8° 1013.2 hPa 6.3 m/s 35.0 mm 11.4° 1013.7 hPa 6.3 m/s 16.0° 1008.0 hPa 6.6 m/s 35.0 mm
18:00 11.9° 1010.4 hPa 6.2 m/s 35.0 mm 11.6° 1010.8 hPa 6.2 m/s 15.1° 1007.1 hPa 5.2 m/s 35.0 mm
21:00 11.9° 1007.7 hPa 6.2 m/s 35.0 mm 11.8° 1007.8 hPa 6.2 m/s 13.2° 1007.2 hPa 6.0 m/s 35.0 mm
 06:53     19:02    Daglengte: 12:09 Maandag 23 Sep
03:00 11.6° 1005.3 hPa 5.9 m/s 35.0 mm 11.7° 1005.2 hPa 5.9 m/s 10.3° 1006.7 hPa 5.4 m/s 35.0 mm
09:00 11.0° 1004.6 hPa 4.7 m/s 35.0 mm 11.0° 1004.4 hPa 4.7 m/s 10.7° 1006.5 hPa 5.2 m/s 35.0 mm
15:00 14.4° 1004.5 hPa 4.9 m/s 35.0 mm 14.6° 1004.1 hPa 5.0 m/s 12.4° 1008.4 hPa 3.9 m/s 35.0 mm
21:00 12.3° 1005.7 hPa 5.2 m/s 35.1 mm 12.6° 1005.1 hPa 5.3 m/s 8.8° 1011.9 hPa 3.6 m/s 35.1 mm
 06:55     18:59    Daglengte: 12:04 Dinsdag 24 Sep
03:00 9.6° 1007.1 hPa 4.8 m/s 35.1 mm 9.8° 1006.4 hPa 4.9 m/s 6.8° 1014.5 hPa 3.8 m/s 35.1 mm
09:00 9.3° 1008.5 hPa 4.9 m/s 35.1 mm 9.6° 1007.8 hPa 5.0 m/s 6.1° 1016.3 hPa 3.4 m/s 35.1 mm
15:00 11.6° 1011.0 hPa 5.9 m/s 35.1 mm 11.9° 1010.4 hPa 6.3 m/s 8.6° 1017.9 hPa 2.1 m/s 35.1 mm
21:00 9.2° 1013.6 hPa 3.6 m/s 35.1 mm 9.5° 1013.0 hPa 3.8 m/s 5.4° 1019.8 hPa 1.4 m/s 35.1 mm
 06:58     18:56    Daglengte: 11:58 Woensdag 25 Sep
03:00 7.5° 1015.7 hPa 1.5 m/s 35.1 mm 7.7° 1015.3 hPa 1.5 m/s 5.1° 1020.3 hPa 1.8 m/s 35.1 mm
09:00 7.0° 1020.4 hPa 3.5 m/s 35.1 mm 7.0° 1020.4 hPa 3.5 m/s 35.1 mm
15:00 11.1° 1019.3 hPa 4.5 m/s 35.1 mm 11.1° 1019.3 hPa 4.5 m/s 35.1 mm
21:00 8.5° 1014.5 hPa 1.8 m/s 0.8 mm
 07:00     18:52    Daglengte: 11:52 Donderdag 26 Sep
03:00 8.1° 1013.8 hPa 1.6 m/s 0.8 mm
09:00 8.9° 1013.1 hPa 1.8 m/s 2.1 mm
15:00 11.4° 1012.8 hPa 2.2 m/s 0.4 mm
21:00 8.9° 1012.9 hPa 1.8 m/s 1.1 mm
 07:03     18:49    Daglengte: 11:46 Vrijdag 27 Sep
03:00 8.0° 1012.6 hPa 1.8 m/s 0.4 mm
09:00 8.4° 1012.2 hPa 1.8 m/s 0.8 mm
15:00 11.4° 1011.7 hPa 1.8 m/s 0.7 mm
21:00 9.2° 1010.8 hPa 2.0 m/s 1.0 mm
 07:06     18:46    Daglengte: 11:40 Zaterdag 28 Sep
03:00 8.3° 1010.5 hPa 1.7 m/s 0.9 mm
09:00 8.8° 1010.1 hPa 1.9 m/s 1.0 mm
15:00 11.6° 1010.4 hPa 1.7 m/s 0.8 mm
21:00 8.9° 1011.3 hPa 1.3 m/s 0.3 mm
 07:08     18:43    Daglengte: 11:35 Zondag 29 Sep
03:00 7.8° 1012.5 hPa 1.2 m/s 0.6 mm
09:00 7.7° 1013.1 hPa 1.0 m/s 0.3 mm
15:00 10.8° 1013.7 hPa 1.4 m/s 0.4 mm
21:00 8.0° 1013.8 hPa 1.1 m/s 0.7 mm
 07:11     18:39    Daglengte: 11:28 Maandag 30 Sep
03:00 6.7° 1014.6 hPa 1.3 m/s 0.2 mm
09:00 7.0° 1014.7 hPa 1.5 m/s 0.2 mm
15:00 10.8° 1014.5 hPa 1.8 m/s 0.3 mm
21:00 8.1° 1013.8 hPa 1.7 m/s 0.8 mm
FMI Hirlam - 7.5 km EWN WRFDA - 12 km DWD ICON - 7 km GFS - 25 km Basiskaart






























































Updatetijd (Europe/Amsterdam) Resolutie Lengte Stap
FMI Hirlam 19:00, 01:00, 07:00, 13:00 7.5 km 49h 1h
EWN WRFDA 15:45, 21:45, 03:45, 09:45 12 km 73h 1h
DWD ICON 17:45, 23:45, 05:45, 11:45 7 km 75h 1h
GFS 20:30, 02:30, 08:30, 14:30 25 km 237h 3h
30+ mm
25-30 mm
20-25 mm
15-20 mm
10-15 mm
6-10 mm
4-6 mm
2-4 mm
1-2 mm
0.5-1 mm
0.2-0.5 mm
0.1-0.2 mm
30+ mm
25-30 mm
20-25 mm
15-20 mm
10-15 mm
6-10 mm
4-6 mm
2-4 mm
1-2 mm
0.5-1 mm
0.2-0.5 mm
0.1-0.2 mm
Sneeuwval
Natte sneeuw
Hagel
Vorst
30+ mm
25-30 mm
20-25 mm
15-20 mm
10-15 mm
6-10 mm
4-6 mm
2-4 mm
1-2 mm
0.5-1 mm
0.2-0.5 mm
0.1-0.2 mm
Sneeuwval
Natte sneeuw
Hagel
Vorst
Onweer
50 mm
40 mm
30 mm
26 mm
22 mm
18 mm
14 mm
10 mm
9 mm
8 mm
7 mm
6 mm
5 mm
4.5 mm
4 mm
3.5 mm
3 mm
2.5 mm
2 mm
1.5 mm
1 mm
0.8 mm
0.6 mm
0.4 mm
0.2 mm
0.05 mm
35°
30°
25°
20°
15°
10°
-5°
-10°
-15°
-20°
-25°
-30°
-35°
33> m/s
29 m/s
25 m/s
21 m/s
17 m/s
14 m/s
11 m/s
8 m/s
5 m/s
3 m/s
0 m/s
2600 J/kg
2400 J/kg
2200 J/kg
2000 J/kg
1800 J/kg
1600 J/kg
1400 J/kg
1200 J/kg
1000 J/kg
800 J/kg
600 J/kg
400 J/kg
200 J/kg
70 dBZ
65 dBZ
60 dBZ
55 dBZ
50 dBZ
45 dBZ
40 dBZ
35 dBZ
30 dBZ
25 dBZ
20 dBZ
15 dBZ
10 dBZ
5 dBZ
-1 K
-2 K
-3 K
-4 K
-5 K
-6 K
-7 K
-8 K
-9 K
950 m²/s²
900 m²/s²
850 m²/s²
800 m²/s²
750 m²/s²
700 m²/s²
650 m²/s²
600 m²/s²
550 m²/s²
500 m²/s²
450 m²/s²
400 m²/s²
350 m²/s²
300 m²/s²
250 m²/s²
200 m²/s²
150 m²/s²
100 m²/s²
46 m/s
44 m/s
42 m/s
40 m/s
38 m/s
36 m/s
34 m/s
32 m/s
30 m/s
28 m/s
26 m/s
24 m/s
22 m/s
20 m/s
16 m/s
12 m/s
8 m/s
4 m/s
30 m/s
28 m/s
26 m/s
24 m/s
22 m/s
20 m/s
18 m/s
16 m/s
14 m/s
12 m/s
10 m/s
8 m/s
6 m/s
4 m/s
2 m/s
3.0
2.8
2.6
2.4
2.2
2.0
1.8
1.6
1.4
1.2
1.0
0.8
0.6
0.4
0.2
15
14
13
12
11
10
9
8
7
6
5
4
3
2
1
90%
80%
70%
60%
50%
40%
30%
20%
10%
42
40
38
36
34
32
30
28
26
24
22
20
18
16
14
12
90+ cm
80-90 cm
70-80 cm
60-70 cm
50-60 cm
40-50 cm
30-40 cm
20-30 cm
10-20 cm
1-10 cm
Sneeuwval
Natte sneeuw
Regen
>120 mm
115 mm
110 mm
105 mm
100 mm
95 mm
90 mm
85 mm
80 mm
75 mm
70 mm
65 mm
60 mm
55 mm
50 mm
45 mm
45 mm
40 mm
35 mm
30 mm
25 mm
20 mm
15 mm
10 mm
5 mm
0.1 mm
960 hPa
880 hPa
800 hPa
720 hPa
640 hPa
560 hPa
584 gpdm
568 gpdm
552 gpdm
536 gpdm
520 gpdm
504 gpdm
488 gpdm
Extreem zwaar Noodweer Kans op onweer
15% 15% 5% 50% 15%

Dag




Kaart






35°
30°
25°
20°
15°
10°
-5°
-10°
-15°
-20°
-25°
-30°
-35°